AIB2804 FAGG-FAPE

Flight info

Callsign AIB2804
Flight time N/A
Altitude 29000
Route GG1F1 DCT GG1M2 DCT OKRAV DCT TESUP DCT TIBIP DCT PE2F1 DCT PE2MP
Aircraft A321/M-SDE3FGHIRWY/LB1

Departure

Time 2026-04-28 12:52
Airport George Airport (FAGG)

Arrival

Time N/A
Airport Chief Dawid Stuurman International Airport (FAPE)
Time Latitude Longitude Altitude Speed Heading
2026-04-28 12:34 -34.00260 22.38200 641 ft 0 kts 21°
2026-04-28 12:46 -34.00263 22.38199 641 ft 2 kts 21°
2026-04-28 12:46 -34.00276 22.38190 641 ft 2 kts 45°
2026-04-28 12:46 -34.00285 22.38175 641 ft 2 kts 62°
2026-04-28 12:46 -34.00290 22.38159 641 ft 2 kts 80°
2026-04-28 12:47 -34.00291 22.38141 641 ft 2 kts 97°
2026-04-28 12:47 -34.00288 22.38123 640 ft 2 kts 115°
2026-04-28 12:47 -34.00283 22.38114 640 ft 1 kts 126°
2026-04-28 12:47 -34.00280 22.38109 640 ft 0 kts 127°
2026-04-28 12:49 -34.00283 22.38115 640 ft 7 kts 127°
2026-04-28 12:49 -34.00322 22.38194 642 ft 12 kts 108°
2026-04-28 12:49 -34.00329 22.38305 642 ft 14 kts 89°
2026-04-28 12:49 -34.00324 22.38443 642 ft 18 kts 87°
2026-04-28 12:50 -34.00319 22.38608 642 ft 20 kts 88°
2026-04-28 12:50 -34.00313 22.38779 642 ft 20 kts 87°
2026-04-28 12:50 -34.00346 22.38901 642 ft 12 kts 146°
2026-04-28 12:50 -34.00430 22.38916 644 ft 12 kts 181°
2026-04-28 12:51 -34.00509 22.38899 645 ft 11 kts 236°
2026-04-28 12:51 -34.00522 22.38795 645 ft 13 kts 267°
2026-04-28 12:51 -34.00532 22.38476 646 ft 90 kts 267°
2026-04-28 12:51 -34.00571 22.37296 948 ft 172 kts 269°
2026-04-28 12:52 -34.00655 22.35965 2521 ft 166 kts 265°
2026-04-28 12:52 -34.00810 22.34880 4385 ft 134 kts 264°
2026-04-28 12:52 -34.00946 22.33846 5601 ft 134 kts 265°
2026-04-28 12:52 -34.01101 22.32911 6891 ft 119 kts 265°
2026-04-28 12:53 -34.01202 22.31912 7767 ft 133 kts 272°
2026-04-28 12:53 -34.01231 22.30787 8772 ft 143 kts 276°
2026-04-28 12:53 -34.01208 22.29643 9815 ft 149 kts 277°
2026-04-28 12:53 -34.01378 22.28342 10603 ft 182 kts 252°
2026-04-28 12:54 -34.02270 22.27037 11329 ft 227 kts 225°
2026-04-28 12:54 -34.03721 22.26177 12564 ft 244 kts 205°
2026-04-28 12:54 -34.05383 22.25896 13935 ft 252 kts 184°
2026-04-28 12:54 -34.07010 22.26556 15213 ft 262 kts 147°
2026-04-28 12:55 -34.08111 22.28300 16145 ft 272 kts 103°
2026-04-28 12:55 -34.08131 22.30479 17027 ft 260 kts 62°
2026-04-28 12:55 -34.07374 22.32389 17946 ft 252 kts 47°
2026-04-28 12:55 -34.06570 22.34349 18466 ft 281 kts 69°
2026-04-28 12:56 -34.06582 22.36832 18888 ft 314 kts 104°
2026-04-28 12:56 -34.07581 22.39173 19643 ft 318 kts 127°
2026-04-28 12:56 -34.08908 22.41267 20622 ft 314 kts 130°
2026-04-28 12:56 -34.10237 22.43375 21393 ft 318 kts 128°
2026-04-28 12:57 -34.11504 22.45580 22087 ft 324 kts 125°
2026-04-28 12:57 -34.12608 22.47983 22763 ft 330 kts 107°
2026-04-28 12:57 -34.12960 22.50663 23429 ft 327 kts 84°
2026-04-28 12:57 -34.12837 22.53401 24102 ft 329 kts 78°
2026-04-28 12:58 -34.12601 22.56150 24737 ft 335 kts 77°
2026-04-28 12:58 -34.12356 22.58977 25385 ft 341 kts 77°
2026-04-28 12:58 -34.12135 22.61826 26054 ft 347 kts 78°
2026-04-28 12:58 -34.11936 22.64757 26733 ft 353 kts 79°
2026-04-28 12:59 -34.11752 22.67728 27365 ft 359 kts 79°
2026-04-28 12:59 -34.11577 22.70736 27975 ft 364 kts 79°
2026-04-28 12:59 -34.11400 22.73823 28573 ft 369 kts 79°
2026-04-28 12:59 -34.11221 22.76913 29072 ft 378 kts 79°
2026-04-28 13:00 -34.11029 22.80163 29277 ft 396 kts 80°
2026-04-28 13:00 -34.10822 22.83550 29287 ft 420 kts 81°
2026-04-28 13:00 -34.10604 22.87161 29289 ft 443 kts 81°
2026-04-28 13:00 -34.10376 22.90975 29288 ft 465 kts 82°
2026-04-28 13:01 -34.10144 22.94902 29288 ft 484 kts 82°
2026-04-28 13:01 -34.09897 22.99039 29286 ft 502 kts 82°
2026-04-28 13:01 -34.09644 23.03288 29287 ft 518 kts 83°
2026-04-28 13:01 -34.09378 23.07716 29286 ft 533 kts 83°
2026-04-28 13:02 -34.09109 23.12184 29286 ft 545 kts 83°
2026-04-28 13:02 -34.08555 23.21350 29255 ft 534 kts 83°
2026-04-28 13:02 -34.08292 23.25747 29266 ft 512 kts 83°
2026-04-28 13:03 -34.08033 23.29981 29277 ft 512 kts 83°
2026-04-28 13:03 -34.07755 23.34327 29281 ft 527 kts 83°
2026-04-28 13:03 -34.07466 23.38822 29283 ft 540 kts 83°
2026-04-28 13:04 -34.06883 23.47908 29283 ft 547 kts 83°
2026-04-28 13:04 -34.06293 23.57084 29282 ft 548 kts 83°
2026-04-28 13:05 -34.05703 23.66180 29269 ft 548 kts 82°
2026-04-28 13:05 -34.05100 23.75330 29214 ft 548 kts 82°
2026-04-28 13:06 -34.04486 23.84524 29177 ft 548 kts 82°
2026-04-28 13:06 -34.03871 23.93614 29159 ft 549 kts 82°
2026-04-28 13:07 -34.03247 24.02770 29151 ft 549 kts 82°
2026-04-28 13:07 -34.02614 24.11954 29149 ft 549 kts 82°
2026-04-28 13:08 -34.01975 24.21115 29149 ft 549 kts 82°
2026-04-28 13:08 -34.01342 24.30138 28635 ft 530 kts 82°
2026-04-28 13:08 -34.01038 24.34467 28022 ft 519 kts 82°
2026-04-28 13:09 -34.00734 24.38746 27434 ft 509 kts 82°
2026-04-28 13:09 -34.00432 24.42947 26881 ft 499 kts 82°
2026-04-28 13:09 -34.00134 24.47069 26310 ft 490 kts 82°
2026-04-28 13:09 -33.99837 24.51145 25514 ft 487 kts 82°
2026-04-28 13:10 -33.99737 24.52511 25243 ft 486 kts 82°